Starlink 6336

operational
NORAD ID: 56788 Int'l Des: 2023-078 Owner: SPXS Country: US Constellation: starlink
LEOCIRCULAR

Über Starlink 6336

Beschreibung wird geladen...

Live-Position

3D-Globus wird geladen...

Nächste Überflüge

Höhenverlauf

Altitude vs Time

uPlot chart will show altitude changes over time

Zweizeiliger Elementsatz

1 56788U 23078X 25306.31750936 .00000210 00000-0 25438-4 0 9993
2 56788 69.9978 285.6341 0003506 267.8700 92.2057 14.98332697134091
Epoch: 2. Nov. 2025 • Age: 22 hours

Aktueller Status

Höhe 593.7 km
Geschwindigkeit 7.56 km/s
Subsatellitenpunkt -64.47°S, 105.43°E
Startdatum 31. Mai 2023
Alter 2.4 years
Typ internet

Technische Details

Klassifizierung Payload
Masse 305.00 kg
Trockenmasse 290.00 kg
Gesamtmasse 305.00 kg
Länge 0.20 m
Durchmesser 2.80 m
Spannweite 9.00 m
Form Box + pan
Hersteller SPXS
Bus-Typ Starlink
Phasenstatus In Orbit
Besitzer/Staat SPXS/US

Große Konstellationen

Loading constellations...